GFSFLT2_sfc_thetae_084.txt.gz
Theta_e
305 306 304 299 296 297 289 287 287 291 295 304 311 309 313 314 318 323 331 334 336 341 349 352 347 344 341 337 337 339 341 343
305 306 307 301 302 292 289 286 284 290 292 298 309 309 316 318 323 330 334 338 345 348 348 345 342 339 339 339 340 342 345 347
302 301 299 299 296 295 292 290 287 286 293 305 314 316 319 324 335 335 340 344 344 344 343 341 342 339 340 341 341 342 344 345
299 304 306 303 301 298 293 288 290 291 293 315 312 322 326 329 335 343 345 345 345 345 344 341 340 338 338 340 343 342 342 343
293 297 302 300 301 300 296 291 289 289 294 319 320 324 331 333 335 337 340 340 343 345 344 342 340 339 339 340 342 343 338 344
292 294 298 299 301 302 296 292 291 292 298 312 315 320 320 330 334 336 340 339 337 339 341 342 342 341 341 341 342 341 344 343
301 305 305 302 303 304 301 298 294 295 305 310 314 316 319 330 333 337 338 338 338 338 339 340 341 341 343 343 340 341 344 342
299 305 306 305 310 308 310 311 309 304 307 315 317 316 322 327 330 335 336 338 338 339 341 343 344 344 344 342 340 343 344 342
293 301 305 302 307 309 309 311 310 304 309 320 324 320 322 315 318 334 335 337 340 340 338 342 344 345 343 343 343 344 344 343
293 297 292 305 313 311 308 310 312 312 315 316 318 322 325 329 331 333 336 339 340 341 341 341 342 344 345 345 345 345 340 337
291 290 297 307 310 309 308 305 312 313 315 316 317 323 321 326 330 331 333 335 336 336 335 337 336 339 344 343 342 334 330 326
293 291 291 303 312 316 313 303 314 315 315 315 315 304 314 325 328 327 329 335 336 336 332 328 328 329 329 328 330 327 326 326
295 292 302 311 314 314 297 299 313 316 314 315 313 314 318 326 327 330 329 331 335 336 331 325 323 323 323 323 323 326 324 324
294 293 292 313 317 306 308 312 314 313 314 315 316 316 322 325 326 327 327 330 334 333 333 332 329 329 326 323 321 322 322 322
296 298 306 308 315 316 315 316 315 313 319 317 318 322 324 323 325 325 326 327 329 329 327 329 330 327 327 327 329 324 321 322
299 303 306 312 315 317 318 319 322 323 323 323 322 323 322 324 324 323 323 324 325 324 322 321 322 322 321 323 327 327 327 327
299 304 309 310 313 316 317 321 322 323 323 324 322 322 323 322 321 321 321 320 320 319 319 319 320 320 320 320 319 317 319 321
297 304 308 307 312 316 317 318 320 321 321 323 322 322 323 320 320 319 318 318 317 317 317 317 318 318 319 318 317 314 314 316
305 310 314 316 314 316 317 318 320 320 321 321 322 322 321 320 320 319 322 321 316 316 315 315 315 315 317 319 315 315 313 313

GFSFLT2_sfc_thetae_087.txt.gz
Theta_e
303 303 303 298 293 296 290 285 285 289 293 300 304 309 310 308 320 325 327 327 331 336 343 345 346 349 347 343 342 343 341 341
304 304 304 300 301 292 290 285 283 287 290 292 300 308 313 311 316 321 326 331 334 339 346 349 347 343 341 341 339 339 339 340
301 298 296 296 295 295 292 288 285 284 289 299 306 315 320 331 335 336 339 341 343 345 344 342 340 341 338 337 338 339 341 342
298 303 304 301 297 296 292 288 287 287 290 312 313 320 331 335 339 341 341 340 340 338 339 339 339 339 338 337 339 341 341 343
294 299 301 297 300 296 293 289 288 288 291 316 321 325 332 334 337 340 341 341 341 339 337 338 337 338 339 339 340 340 340 340
291 296 301 298 298 300 295 289 288 290 292 307 319 323 327 331 338 339 341 342 341 340 339 339 339 336 335 337 342 340 336 340
300 302 304 303 306 299 297 298 292 296 295 302 315 314 318 327 329 334 338 339 339 338 338 340 340 339 338 338 340 342 339 340
297 302 305 306 309 310 309 310 308 308 305 313 318 323 323 324 327 331 334 337 338 339 340 341 340 339 339 340 339 340 341 340
293 299 302 300 306 309 309 311 311 304 309 320 317 319 319 319 323 325 330 334 335 336 338 340 342 342 340 341 339 339 340 341
294 296 293 303 312 312 310 311 314 314 315 319 318 315 315 317 321 321 327 331 333 334 336 338 340 341 341 341 341 340 340 340
292 293 300 306 309 308 306 307 314 314 314 315 321 315 312 321 322 321 324 327 332 332 330 330 331 336 344 341 341 338 335 334
294 291 292 303 312 317 312 299 314 315 315 314 315 305 308 321 323 323 324 321 332 328 326 324 325 330 332 332 333 332 330 328
295 291 300 310 310 314 295 297 311 314 313 314 312 313 315 319 325 328 332 332 334 331 329 327 328 324 321 321 323 326 328 327
292 290 291 307 312 302 306 309 312 312 311 314 314 315 315 322 324 326 328 329 330 327 327 326 326 327 326 326 326 321 322 322
295 295 302 304 314 311 310 312 315 314 314 316 318 318 322 323 322 325 325 325 326 323 321 320 320 320 319 319 323 327 329 326
298 302 305 311 312 315 312 313 319 321 322 318 319 321 321 320 320 320 320 321 321 320 318 318 317 317 315 316 316 317 316 317
297 307 308 310 312 313 313 315 317 321 323 323 322 321 320 318 317 317 317 318 319 317 316 316 316 316 317 315 315 313 313 314
296 303 305 305 312 316 314 313 314 318 320 322 323 321 321 318 318 316 315 315 314 313 313 313 314 314 315 316 313 311 311 312
304 306 308 312 312 314 315 319 320 320 321 320 321 321 319 316 317 317 317 316 314 313 313 312 312 312 313 315 316 313 309 310

GFSFLT2_sfc_thetae_093.txt.gz
Theta_e
305 307 306 300 299 304 297 297 294 299 303 308 312 312 314 319 331 331 327 324 328 334 339 343 347 349 350 353 356 356 356 357
306 307 305 305 306 298 299 292 290 297 299 300 308 311 314 327 335 336 335 332 335 338 341 344 346 349 351 353 355 356 357 357
305 304 303 301 300 301 302 298 294 292 297 310 309 315 322 336 337 337 339 337 340 342 344 346 348 350 352 354 354 356 357 358
302 307 307 305 302 302 297 295 298 298 299 311 320 328 336 336 338 339 342 342 345 346 348 348 349 352 352 354 354 356 358 358
299 304 307 304 306 307 310 303 300 296 299 312 325 331 332 334 338 338 336 339 343 346 347 348 349 351 352 354 355 356 357 354
296 299 303 302 304 310 311 300 300 300 303 307 320 324 327 329 336 340 342 340 340 340 342 345 346 347 351 353 355 354 352 347
303 304 304 303 303 306 309 310 303 302 301 314 319 319 323 326 330 332 338 342 341 341 344 341 341 342 342 344 347 348 346 347
301 304 303 301 305 307 307 309 311 310 307 318 320 321 324 326 328 329 330 334 336 338 337 335 338 334 331 336 343 348 348 350
297 301 301 300 306 306 308 311 312 309 315 317 316 319 322 325 328 330 331 333 333 333 336 335 334 332 330 336 341 345 348 350
297 301 292 307 312 310 308 311 314 315 316 317 317 318 321 323 323 326 329 330 332 334 334 333 333 332 331 331 328 328 337 348
296 296 300 307 310 309 306 306 314 314 315 317 319 320 320 325 325 325 327 329 331 331 332 331 330 329 328 325 325 325 327 343
300 294 292 307 313 316 314 300 314 314 317 318 319 314 317 326 327 326 327 331 332 330 331 330 330 332 330 327 325 330 332 333
298 297 303 308 313 315 301 303 314 317 318 317 315 318 322 328 326 330 327 331 330 328 327 329 329 329 325 326 326 329 330 330
301 298 296 311 314 307 311 316 315 319 320 319 320 324 324 326 326 326 326 327 326 325 323 325 325 323 321 320 323 328 329 330
303 303 309 313 315 318 317 316 316 320 321 321 325 323 324 323 325 325 324 323 322 321 321 320 321 322 319 319 322 324 325 326
305 308 312 316 317 318 317 317 319 322 323 325 322 323 324 324 325 323 324 322 322 322 321 321 321 320 319 320 322 323 322 323
306 308 312 314 316 318 317 318 321 323 324 323 322 320 319 319 319 320 322 321 322 322 320 322 324 324 324 323 322 322 323 324
303 309 314 313 317 319 317 317 319 320 316 316 315 315 320 320 321 321 320 320 320 321 322 322 323 322 324 327 328 328 325 324
311 315 315 317 319 318 317 319 319 318 318 316 319 322 321 322 323 318 323 322 321 320 321 323 324 324 322 323 324 326 326 325

GFSFLT2_sfc_thetae_096.txt.gz
Theta_e
309 311 310 306 301 308 301 303 298 301 307 312 314 315 318 321 328 334 340 341 340 337 333 341 348 351 354 358 362 362 362 364
309 311 310 308 309 302 302 294 294 297 302 304 310 313 317 322 331 341 344 343 340 338 337 341 348 351 354 357 360 361 362 364
311 307 306 306 304 305 304 302 296 296 300 313 313 315 320 328 338 343 345 345 341 342 343 346 348 351 353 356 359 361 363 363
305 311 312 310 307 307 301 300 303 302 301 313 316 320 331 334 341 344 343 347 347 346 347 347 348 352 353 358 359 361 364 364
302 307 311 308 309 310 312 311 304 299 301 315 323 326 335 337 342 342 342 340 343 349 350 350 352 354 355 358 359 361 363 363
299 302 307 305 307 310 310 304 304 305 305 310 320 326 331 335 337 341 344 342 341 343 347 351 353 354 354 355 356 360 360 361
306 307 307 306 306 306 307 308 306 307 308 312 323 323 327 330 333 336 340 341 346 342 342 344 345 347 345 347 349 352 351 348
303 306 306 304 306 307 308 309 310 312 312 323 324 328 328 332 335 335 334 337 341 344 340 335 339 343 349 351 352 352 347 350
299 305 305 301 305 308 310 312 313 309 318 323 323 324 326 328 331 332 333 334 333 338 338 339 339 342 345 348 347 342 347 351
299 303 295 307 315 312 310 314 317 317 319 321 321 324 327 329 329 330 331 333 333 333 335 338 336 334 336 338 336 341 345 350
299 299 303 305 313 312 309 310 317 317 319 319 324 324 325 329 330 331 333 334 335 335 336 337 336 336 339 338 336 338 337 341
303 297 294 310 314 319 319 306 315 317 318 318 322 317 323 330 330 329 333 334 335 336 337 336 337 339 338 336 336 333 335 340
303 300 305 313 318 320 302 304 316 318 318 319 316 323 328 329 331 332 331 332 332 331 330 333 337 338 334 333 331 335 337 334
306 301 298 316 316 310 313 317 319 320 323 322 324 324 326 326 327 327 329 330 333 332 331 332 335 335 332 327 327 329 330 328
306 305 316 318 318 319 320 318 318 319 324 324 323 323 326 326 326 325 325 328 328 329 327 329 331 333 330 329 325 325 325 327
308 313 315 317 320 320 321 320 322 325 324 324 323 324 324 325 324 324 325 327 327 328 327 327 329 329 328 329 328 326 325 326
304 313 316 317 319 319 320 323 324 327 327 323 321 320 321 323 324 325 323 325 326 327 327 327 329 330 330 330 328 327 326 326
301 314 317 318 322 321 320 321 323 322 319 316 316 316 320 319 321 320 320 322 322 325 326 326 326 327 328 331 330 329 328 326
313 320 320 321 321 322 321 322 321 320 319 317 318 318 317 319 322 319 325 325 323 323 324 328 328 327 328 329 327 326 326 326

GFSFLT2_sfc_thetae_102.txt.gz
Theta_e
314 314 312 306 303 309 302 303 298 302 306 311 315 314 316 317 319 321 325 334 339 342 349 351 351 354 356 359 365 366 367 367
312 314 314 309 311 301 302 296 294 299 301 303 310 313 316 318 317 318 319 321 330 342 343 351 351 354 357 360 365 367 367 368
311 309 307 308 307 308 307 304 296 297 299 311 314 318 319 314 314 315 318 321 326 352 351 346 348 352 356 359 366 366 367 368
305 311 312 311 310 309 302 301 303 302 301 315 316 319 319 318 317 317 321 319 347 352 352 355 347 349 355 357 365 366 369 367
300 306 311 308 309 310 309 307 301 298 302 316 317 317 319 319 318 325 336 342 345 345 347 351 354 355 355 359 362 365 368 365
297 302 307 304 306 309 307 301 302 303 306 312 312 312 317 324 328 336 338 337 338 341 344 344 349 352 353 352 356 362 361 361
306 307 307 306 305 305 305 307 303 305 307 312 310 311 312 319 327 331 333 328 326 326 326 339 344 347 345 345 345 346 358 357
303 306 306 304 306 305 305 306 306 309 311 315 320 317 316 321 324 328 330 325 324 325 327 337 338 340 338 338 340 340 337 332
298 305 304 299 304 305 308 310 310 305 314 318 321 323 325 326 328 328 331 331 330 330 333 335 332 334 337 338 339 339 337 336
299 303 294 305 314 313 309 308 315 315 319 322 323 326 327 329 328 328 331 332 332 335 336 334 335 337 338 340 338 337 339 336
300 299 303 305 313 311 305 302 316 316 318 321 323 325 317 319 329 331 332 334 337 337 337 338 339 339 338 337 336 334 334 336
301 296 295 307 312 317 313 303 316 316 316 317 322 312 311 316 324 331 333 335 334 334 336 337 340 340 337 333 333 334 335 335
299 298 303 311 313 317 304 307 316 317 318 318 315 321 317 320 327 331 333 333 335 335 332 335 334 337 332 333 331 334 335 335
305 300 296 315 311 306 317 323 322 322 322 320 319 322 324 326 328 329 330 331 331 331 331 334 337 335 330 329 332 334 335 334
307 307 316 317 318 322 323 320 321 321 325 324 322 323 323 325 326 328 327 329 330 328 331 332 333 335 330 332 332 332 331 332
308 313 313 314 321 324 322 322 324 326 325 326 323 324 323 324 325 325 326 325 327 328 328 330 333 333 334 334 334 333 332 332
309 312 313 317 319 322 322 323 325 326 325 323 323 324 325 324 326 326 327 328 328 327 327 328 330 330 331 335 335 333 333 333
304 314 315 317 321 323 321 321 321 321 320 321 321 322 322 320 320 320 322 323 322 323 325 327 329 332 334 336 335 333 330 328
311 317 319 323 319 317 319 320 320 319 321 319 321 321 323 322 323 321 323 323 322 322 325 325 324 329 333 333 334 330 328 330

GFSFLT2_sfc_thetae_105.txt.gz
Theta_e
309 309 307 301 296 300 291 293 291 293 300 310 316 317 316 315 316 317 316 319 323 326 332 335 339 347 352 353 354 357 356 355
308 311 310 303 307 295 294 287 287 293 296 299 308 312 313 313 314 318 316 319 322 325 327 328 329 334 351 355 355 357 358 357
305 302 301 302 300 301 298 296 289 288 294 309 312 312 311 314 317 318 320 319 322 323 321 326 331 332 348 352 356 358 359 359
298 305 307 305 302 301 294 293 295 294 295 312 313 315 316 316 319 322 322 320 323 326 327 329 323 344 347 351 355 359 360 359
294 298 303 302 304 302 301 300 294 291 294 312 312 312 316 317 316 326 328 329 330 335 336 339 342 341 342 344 353 360 361 360
291 295 301 300 303 304 299 293 294 297 299 310 309 311 311 314 314 325 326 328 329 328 326 331 337 338 339 339 340 345 354 350
301 303 303 302 302 303 300 299 295 302 305 308 310 313 312 315 317 323 319 324 327 325 325 325 331 334 335 337 336 334 332 332
299 303 303 301 303 304 303 306 305 309 308 314 315 319 317 319 316 321 325 329 326 327 333 328 328 328 332 332 335 337 335 334
294 301 300 296 303 306 308 310 307 300 308 315 316 318 315 318 323 326 329 331 332 331 328 327 329 330 330 334 335 338 335 334
295 297 289 301 312 311 306 308 309 309 312 317 319 314 315 317 320 325 328 331 330 331 329 329 331 332 334 336 335 336 335 332
294 293 299 305 308 307 305 305 313 313 315 317 319 318 313 318 322 326 327 330 331 332 334 332 332 334 334 333 333 334 335 336
296 291 290 302 309 315 314 301 316 315 313 313 316 307 309 317 321 329 329 330 330 331 330 331 331 331 329 329 330 328 328 330
298 295 300 309 311 313 298 302 313 316 315 313 309 315 315 316 320 327 327 330 330 331 329 328 327 326 323 323 324 327 329 329
298 295 292 313 312 301 307 314 316 318 318 315 313 320 317 319 322 325 326 328 329 327 326 328 326 324 322 321 324 325 326 326
301 300 310 314 313 315 316 315 318 319 320 321 318 317 321 322 323 323 325 325 327 325 326 327 326 326 322 322 324 324 324 323
303 308 309 313 318 319 319 317 319 323 321 320 319 322 321 321 320 321 323 323 325 323 323 323 325 326 325 326 327 325 323 322
304 309 312 314 316 318 320 322 322 324 324 320 320 320 320 321 321 322 323 324 324 321 322 323 323 324 324 325 325 323 322 323
300 309 309 312 317 319 318 318 321 320 318 318 319 318 319 318 319 319 318 319 318 320 320 320 322 323 323 324 322 320 319 320
307 313 319 319 317 319 319 321 321 319 319 317 319 319 320 317 318 318 321 320 318 318 321 315 315 320 325 323 321 320 318 319

GFSFLT2_sfc_thetae_111.txt.gz
Theta_e
306 305 302 297 293 295 288 286 286 288 297 306 311 311 313 313 317 318 319 321 324 324 325 327 330 333 341 342 343 346 348 348
305 304 303 297 300 293 291 285 284 289 291 293 300 305 309 313 315 318 321 323 324 327 327 326 330 330 333 338 338 341 351 350
299 296 295 295 294 295 292 290 286 285 290 299 304 308 309 313 313 320 323 327 327 328 329 328 329 327 332 333 332 335 341 352
293 299 302 297 296 293 289 287 289 288 290 306 310 311 314 313 313 318 329 324 323 325 328 330 325 328 329 332 333 336 339 347
290 295 299 297 297 295 293 290 290 287 290 307 309 311 311 311 312 318 322 324 323 321 325 328 330 330 334 335 335 336 336 347
287 292 296 295 298 298 292 287 288 290 293 300 307 308 310 313 313 315 322 323 321 320 323 323 325 327 328 332 335 333 337 344
295 298 298 298 299 299 297 295 291 295 298 303 307 310 311 315 317 319 319 320 320 322 324 323 324 326 328 329 335 330 334 334
292 297 298 296 299 303 304 306 303 303 301 310 313 314 315 316 317 319 321 323 322 325 325 324 325 328 330 331 334 333 331 331
290 293 294 290 296 303 303 306 302 297 300 308 308 313 314 314 316 318 323 324 326 327 326 329 328 328 331 331 333 332 329 330
287 288 283 292 308 308 305 306 306 305 307 311 311 314 313 314 314 318 323 325 325 327 329 330 327 328 328 330 332 333 331 329
286 285 291 302 305 304 300 300 310 308 310 311 313 313 311 315 319 322 322 323 325 326 325 323 325 326 326 326 327 328 329 330
291 288 287 296 308 313 310 296 311 310 306 306 311 301 305 313 316 317 322 323 324 323 322 320 320 322 321 321 321 321 323 325
292 290 295 304 310 313 294 295 309 307 306 307 306 308 312 316 314 318 321 324 325 322 320 318 319 318 317 316 317 319 321 322
292 290 289 308 310 301 303 305 308 309 308 308 310 314 316 316 315 319 322 325 325 321 319 319 319 318 316 317 318 319 319 320
296 295 305 305 307 308 308 308 310 310 313 313 313 316 315 317 316 318 324 324 324 321 319 320 320 319 318 318 319 319 318 317
299 303 304 307 310 312 313 312 314 315 316 317 316 317 313 315 315 317 321 322 322 320 319 318 319 319 318 318 318 317 316 315
299 302 305 307 310 313 315 316 317 318 318 317 316 316 315 315 317 317 320 321 320 319 319 318 318 317 318 317 315 314 314 315
297 302 301 302 312 313 312 313 315 315 314 315 315 315 317 314 319 319 319 320 318 317 316 316 317 318 319 318 316 314 313 312
302 311 307 312 312 315 312 315 318 317 316 315 315 316 314 316 318 317 319 319 318 315 314 310 312 316 316 318 315 312 310 310

GFSFLT2_sfc_thetae_117.txt.gz
Theta_e
308 308 307 303 302 303 298 297 296 300 303 310 316 317 319 319 320 322 322 328 333 334 334 336 338 336 337 343 350 350 353 356
306 307 308 307 306 301 302 293 292 299 300 304 307 310 314 318 320 322 322 327 332 332 334 335 338 337 339 342 344 350 352 354
306 304 303 304 303 302 302 301 295 293 298 310 310 313 315 318 321 323 323 326 331 331 334 334 337 339 339 342 342 342 345 353
302 304 305 305 304 304 299 297 299 298 298 311 312 315 317 318 322 324 324 325 329 332 334 333 335 338 336 339 341 344 342 342
300 303 305 303 305 304 302 302 299 295 298 310 311 313 316 320 321 325 328 330 332 334 333 333 334 337 338 339 340 342 343 342
297 301 304 301 303 304 303 298 299 299 301 306 309 314 319 321 325 327 328 329 332 334 334 334 333 335 337 337 340 341 338 340
303 303 303 303 302 303 301 302 298 300 301 305 313 317 318 321 324 324 325 327 329 331 335 335 335 335 337 337 339 340 336 335
299 302 302 299 302 302 302 302 302 302 302 314 317 318 319 320 320 321 323 325 329 331 334 334 331 334 332 337 339 340 338 335
295 299 299 295 300 301 302 305 306 302 309 313 314 316 318 318 318 320 323 326 328 330 332 332 331 333 331 336 338 339 337 335
295 297 289 300 310 311 307 309 312 312 313 315 317 320 319 322 321 322 325 325 326 328 330 333 333 333 332 333 334 333 333 336
294 294 298 302 308 308 306 306 311 311 313 313 316 316 316 321 323 325 325 326 328 328 328 329 330 332 331 330 332 332 331 331
298 294 291 303 310 315 313 301 313 315 314 314 315 307 311 322 323 324 328 328 327 329 327 327 327 328 329 327 328 327 328 330
300 297 301 308 312 315 300 302 313 316 317 316 312 315 321 323 324 327 327 327 329 329 327 326 328 326 326 328 327 328 330 332
301 298 294 312 313 306 312 316 315 316 318 318 320 321 322 323 325 327 327 325 327 325 322 324 327 330 326 328 330 330 330 330
304 303 311 314 315 318 319 317 317 318 320 321 321 320 322 323 324 326 325 326 325 323 322 324 328 330 328 327 330 329 329 329
303 307 308 311 316 317 318 318 320 322 322 321 320 322 321 323 325 326 326 326 324 321 322 321 326 327 329 327 328 328 327 327
304 307 310 313 315 317 320 323 322 322 322 321 322 320 322 321 321 324 325 327 325 324 322 322 324 325 327 327 327 326 327 326
300 309 309 311 316 320 320 318 320 321 321 323 322 321 323 320 321 322 323 325 324 324 323 322 324 328 327 327 326 326 324 324
306 314 315 316 318 320 319 320 321 322 322 321 321 322 322 322 322 319 322 323 321 320 320 321 323 326 326 326 325 324 324 324

GFSFLT2_sfc_thetae_123.txt.gz
Theta_e
313 314 313 311 308 314 306 307 303 307 310 316 319 319 321 320 322 324 327 329 330 334 337 339 341 341 344 346 351 354 355 359
313 314 314 312 315 305 308 300 299 304 305 307 316 316 318 319 321 323 327 330 331 332 335 339 341 342 343 345 348 351 353 356
312 311 310 311 310 311 310 307 300 299 304 315 314 316 316 318 319 323 325 328 332 335 337 340 340 340 342 343 346 347 351 354
309 315 315 314 311 310 305 304 307 306 305 317 317 317 318 318 320 326 329 331 332 334 335 337 340 341 342 344 346 348 350 351
306 311 314 310 312 312 312 310 305 301 304 315 317 317 318 317 320 327 329 330 330 332 334 336 338 341 341 343 345 346 347 347
302 306 310 308 310 311 309 304 305 305 307 311 313 314 316 318 323 327 329 328 329 331 335 337 339 341 342 344 344 345 345 346
309 309 309 307 307 307 306 307 303 306 306 309 314 317 319 322 325 325 326 325 327 328 333 335 337 339 342 343 342 344 344 344
305 308 307 304 306 307 307 307 306 306 306 314 320 321 321 321 323 323 323 324 326 329 332 333 335 338 339 340 343 345 342 342
302 306 305 301 305 306 307 308 307 304 310 316 317 319 320 322 321 321 323 324 325 328 331 334 336 339 339 339 340 341 342 344
301 304 294 306 311 310 308 309 310 311 313 318 318 320 322 323 321 323 324 324 326 328 331 335 337 339 340 339 338 338 341 340
299 299 304 306 309 309 307 309 314 313 316 316 318 319 318 324 325 325 326 327 329 331 333 336 337 338 337 336 335 335 335 336
302 298 296 307 315 318 315 303 318 317 316 316 317 310 313 323 324 325 327 331 331 333 334 337 338 337 333 331 331 332 333 336
302 299 303 311 317 318 302 307 318 317 319 318 314 319 322 324 324 326 328 329 331 332 334 336 336 335 332 331 328 331 334 335
304 301 298 317 315 309 316 322 318 319 319 319 322 322 322 323 324 326 327 329 330 332 333 335 335 334 331 331 332 333 335 334
306 306 316 318 316 318 319 317 317 320 320 321 321 320 322 322 324 326 328 329 332 333 333 333 333 334 328 329 329 333 335 335
309 312 313 315 319 318 319 320 320 321 322 321 319 322 323 324 325 326 328 328 331 332 331 330 330 329 327 326 327 329 332 333
310 314 314 316 317 319 319 321 322 323 324 321 323 323 323 323 325 326 328 328 330 331 331 328 328 327 326 327 327 328 331 329
304 313 313 314 317 318 318 318 320 321 321 323 323 323 324 323 326 326 327 328 330 331 325 324 326 325 326 327 326 327 328 325
310 315 315 316 317 320 319 320 322 322 324 323 324 325 325 325 326 324 327 328 327 325 323 324 323 322 324 325 326 327 332 327